Manchester, NH

7:34 AM EDT on March 29, 2017 (GMT -0400)
Manchester

Weather History for KMHT - July, 2013

Change the Weather History Date:

Friday, July 5, 2013

  Actual Average Record
Temperature  
Mean Temperature 86 °F 72 °F  
Max Temperature 93 °F 82 °F 99 °F (2010)
Min Temperature 78 °F 62 °F 42 °F (1961)
Degree Days  
Heating Degree Days 0 0  
Month to date heating degree days 0  
Since 1 June heating degree days 58  
Since 1 July heating degree days 0  
Cooling Degree Days 20 7  
Month to date cooling degree days 35  
Year to date cooling degree days 185  
Since 1 June cooling degree days 155  
Growing Degree Days 36 (Base 50)    
Moisture  
Dew Point 71 °F    
Average Humidity 63    
Maximum Humidity 79    
Minimum Humidity 45    
Precipitation  
Precipitation 0.03 in 0.12 in 1.40 in (1967)
Month to date precipitation 0.57  
Year to date precipitation 22.40  
Snow  
Snow 0.00 in - - ()
Month to date snowfall  
Since 1 July snowfall  
Snow Depth -    
Sea Level Pressure  
Sea Level Pressure 30.10 in    
Wind  
Wind Speed 5 mph (SW)    
Max Wind Speed 12 mph    
Max Gust Speed 18 mph    
Visibility 10 miles    
Events      
T = Trace of Precipitation, MM = Missing Value Source: NWS Daily Summary

Daily Weather History Graph

Daily Weather History Graph

Search for Another Location

Airport or City:

Trip Planner

Search our weather history database for the weather conditions in past years. The results will help you decide how hot, cold, wet, or windy it might be!

Date:

Astronomy

Jul. 05, 2013 Rise Set
Actual Time 5:13 AM EDT 8:27 PM EDT
Civil Twilight 4:38 AM EDT 9:02 PM EDT
Nautical Twilight 3:53 AM EDT 9:47 PM EDT
Astronomical Twilight 2:58 AM EDT 10:41 PM EDT
Moon 3:11 AM EDT (7/5) 6:18 PM EDT (7/5)
Length of Visible Light 16h 23m
Length of Day
15h 14m
Waning Crescent, 6% of the Moon is Illuminated
Jul 5
Waning Crescent
Jul 8
New
Jul 15
First Quarter
Jul 22
Full
Jul 29
Last Quarter

Hourly Weather History & Observations

Time (EDT) Temp. Heat Index Dew Point Humidity Pressure Visibility Wind Dir Wind Speed Gust Speed Precip Events Conditions
12:53 AM 80.1 °F 83.6 °F 71.1 °F 74% 30.12 in 10.0 mi SW 4.6 mph - N/A   Clear
1:53 AM 80.1 °F 83.8 °F 72.0 °F 76% 30.12 in 10.0 mi WSW 4.6 mph - N/A   Clear
2:53 AM 79.0 °F - 72.0 °F 79% 30.13 in 10.0 mi SW 5.8 mph - N/A   Clear
3:53 AM 79.0 °F - 71.1 °F 77% 30.13 in 10.0 mi Calm Calm - N/A   Clear
4:53 AM 78.1 °F - 71.1 °F 79% 30.14 in 10.0 mi SW 5.8 mph - N/A   Clear
5:53 AM 78.1 °F - 71.1 °F 79% 30.15 in 10.0 mi SW 4.6 mph - N/A   Clear
6:53 AM 79.0 °F - 71.1 °F 77% 30.16 in 10.0 mi Calm Calm - N/A   Clear
7:53 AM 81.0 °F 85.2 °F 72.0 °F 74% 30.16 in 10.0 mi Calm Calm - N/A   Clear
8:53 AM 84.0 °F 89.6 °F 72.0 °F 67% 30.16 in 10.0 mi West 4.6 mph - N/A   Partly Cloudy
9:53 AM 86.0 °F 92.2 °F 72.0 °F 63% 30.14 in 10.0 mi SW 4.6 mph - N/A   Partly Cloudy
10:53 AM 89.1 °F 95.0 °F 71.1 °F 55% 30.14 in 10.0 mi SW 6.9 mph - N/A   Partly Cloudy
11:53 AM 91.0 °F 96.6 °F 70.0 °F 50% 30.12 in 10.0 mi WSW 5.8 mph - N/A   Mostly Cloudy
12:53 PM 91.9 °F 97.4 °F 70.0 °F 48% 30.11 in 10.0 mi SSW 10.4 mph - N/A   Mostly Cloudy
1:53 PM 91.9 °F 97.4 °F 70.0 °F 48% 30.09 in 10.0 mi WSW 10.4 mph - N/A   Scattered Clouds
2:53 PM 91.9 °F 95.9 °F 68.0 °F 45% 30.08 in 10.0 mi WSW 9.2 mph 18.4 mph N/A   Scattered Clouds
3:53 PM 93.0 °F 99.0 °F 70.0 °F 47% 30.05 in 10.0 mi SSW 11.5 mph 18.4 mph N/A   Scattered Clouds
4:53 PM 91.9 °F 97.4 °F 70.0 °F 48% 30.05 in 10.0 mi SW 9.2 mph 16.1 mph N/A   Mostly Cloudy
5:53 PM 91.0 °F 98.2 °F 72.0 °F 53% 30.04 in 10.0 mi SW 8.1 mph 17.3 mph 0.03 in   Scattered Clouds
6:53 PM 90.0 °F 96.9 °F 72.0 °F 55% 30.05 in 10.0 mi West 5.8 mph - N/A   Scattered Clouds
7:53 PM 87.1 °F 93.6 °F 72.0 °F 61% 30.03 in 10.0 mi SSW 4.6 mph - N/A   Partly Cloudy
8:53 PM 84.9 °F 90.1 °F 71.1 °F 63% 30.04 in 10.0 mi SSW 5.8 mph - N/A   Partly Cloudy
9:53 PM 82.9 °F 88.0 °F 72.0 °F 69% 30.06 in 10.0 mi SSW 4.6 mph - N/A   Clear
10:53 PM 82.9 °F 87.5 °F 71.1 °F 67% 30.05 in 10.0 mi SW 3.5 mph - N/A   Partly Cloudy
11:53 PM 82.0 °F 86.3 °F 71.1 °F 69% 30.07 in 10.0 mi WSW 4.6 mph - N/A   Partly Cloudy